Weather History for Palm Springs, CA

Change the Weather History Date:

Tuesday, September 13, 2011

  Actual Average Record
Temperature  
Mean Temperature 77 °F 88 °F  
Max Temperature 82 °F 102 °F 115 °F (1971)
Min Temperature 71 °F 74 °F 53 °F (1936)
Degree Days  
Heating Degree Days 0 0  
Month to date heating degree days 0 0  
Since 1 July heating degree days 0 0  
Cooling Degree Days 12 23  
Month to date cooling degree days 335 313  
Year to date cooling degree days 3350 3397  
Growing Degree Days 26 (Base 50)    
Moisture  
Dew Point 64 °F    
Average Humidity 56    
Maximum Humidity 79    
Minimum Humidity 33    
Precipitation  
Precipitation 0.49 in 0.02 in 0.54 in (2011)
Month to date precipitation 0.52 0.22  
Year to date precipitation 2.34 3.75  
Since 1 July precipitation 0.87 0.81  
Snow  
Snow 0.00 in - - ()
Month to date snowfall 0.0  
Year to date snowfall 0.0  
Since 1 July snowfall 0.0  
Snow Depth 0.00 in    
Sea Level Pressure  
Sea Level Pressure 29.99 in    
Wind  
Wind Speed 4 mph (NNW)    
Max Wind Speed 24 mph    
Max Gust Speed 30 mph    
Visibility 8 miles    
Events Rain , Thunderstorm    
T = Trace of Precipitation, MM = Missing Value Source: NWS Daily Summary

Daily Weather History Graph

Daily Weather History Graph

Search for Another Location

Airport:

Trip Planner

Search our weather history database for the weather conditions in past years. The results will help you decide how hot, cold, wet, or windy it might be!

Date:

Astronomy

Sep. 13, 2011 Rise Set
Actual Time 6:27 AM PDT 6:55 PM PDT
Civil Twilight 6:02 AM PDT 7:20 PM PDT
Nautical Twilight 5:33 AM PDT 7:49 PM PDT
Astronomical Twilight 5:03 AM PDT 8:19 PM PDT
Moon 7:21 PM PDT (9/13) 7:38 AM PDT (9/13)
Length of Visible Light 13h 17m
Length of Day
12h 27m
Full, 98% of the Moon is Illuminated
Sep 13
Full
Sep 20
Last Quarter
Sep 27
New
Oct 3
First Quarter
Oct 11
Full

Hourly Weather History & Observations

Time (PDT) Temp. Heat Index Dew Point Humidity Pressure Visibility Wind Dir Wind Speed Gust Speed Precip Events Conditions
12:53 AM 79.0 °F - 52.0 °F 39% 29.92 in 10.0 mi Calm Calm - N/A   Clear
1:53 AM 81.0 °F - 48.9 °F 33% 29.91 in 10.0 mi Calm Calm - N/A   Clear
2:53 AM 79.0 °F - 50.0 °F 36% 29.91 in 10.0 mi Calm Calm - N/A   Clear
3:53 AM 79.0 °F - 52.0 °F 39% 29.94 in 10.0 mi SW 4.6 mph - 0.00 in   Mostly Cloudy
4:53 AM 77.0 °F - 60.1 °F 56% 29.95 in 10.0 mi WSW 10.4 mph - 0.02 in   Mostly Cloudy
5:53 AM 75.9 °F - 64.0 °F 67% 29.96 in 10.0 mi NW 4.6 mph - 0.04 in   Scattered Clouds
6:53 AM 75.9 °F - 64.9 °F 69% 29.93 in 10.0 mi NW 5.8 mph - 0.00 in   Scattered Clouds
7:43 AM 75.2 °F - 64.4 °F 69% 30.04 in 10.0 mi ESE 20.7 mph 28.8 mph 0.01 in Rain Light Rain
7:53 AM 73.0 °F - 64.9 °F 76% 30.03 in 9.0 mi ESE 16.1 mph 29.9 mph 0.01 in Rain Light Rain
8:53 AM 73.4 °F - 66.2 °F 78% 30.04 in 10.0 mi WNW 4.6 mph - N/A   Scattered Clouds
9:10 AM 71.6 °F - 66.2 °F 83% 30.02 in 2.0 mi NNW 11.5 mph - 0.12 in Rain Heavy Rain
9:23 AM 71.6 °F - 66.2 °F 83% 30.05 in 7.0 mi Variable 3.5 mph - 0.15 in Rain Light Rain
9:37 AM 71.6 °F - 68.0 °F 88% 30.05 in 1.8 mi WSW 8.1 mph - 0.21 in Rain Heavy Rain
9:42 AM 71.6 °F - 66.2 °F 83% 30.04 in 2.0 mi WSW 6.9 mph - 0.24 in Rain Heavy Rain
9:48 AM 71.6 °F - 66.2 °F 83% 30.03 in 1.2 mi Variable 3.5 mph - 0.34 in Rain Heavy Rain
9:53 AM 71.1 °F - 66.9 °F 87% 30.01 in 1.5 mi North 8.1 mph - 0.35 in Rain Heavy Rain
9:57 AM 71.6 °F - 66.2 °F 83% 30.02 in 3.0 mi North 6.9 mph - 0.00 in Rain Light Rain
10:08 AM 71.6 °F - 66.2 °F 83% 30.05 in 10.0 mi North - - 0.00 in   Overcast
10:16 AM 71.6 °F - 66.2 °F 83% 30.05 in 7.0 mi North 3.5 mph - 0.01 in Thunderstorm Thunderstorm
10:49 AM 71.6 °F - 68.0 °F 88% 30.04 in 10.0 mi Calm Calm - 0.05 in Thunderstorm Thunderstorm
10:53 AM 71.6 °F - 68.0 °F 88% 30.04 in 10.0 mi Calm Calm - N/A Thunderstorm Thunderstorm
11:53 AM 73.0 °F - 66.0 °F 79% 30.03 in 10.0 mi NE 4.6 mph - N/A Thunderstorm Thunderstorm
12:53 PM 75.0 °F - 66.9 °F 76% 30.04 in 10.0 mi SE 3.5 mph - N/A Thunderstorm Thunderstorm
1:53 PM 80.1 °F 81.9 °F 64.9 °F 60% 30.01 in 10.0 mi ENE 5.8 mph - N/A Thunderstorm Thunderstorm
2:53 PM 82.0 °F 83.8 °F 64.9 °F 56% 29.99 in 10.0 mi Variable 5.8 mph - N/A Thunderstorm Thunderstorm
3:53 PM 80.1 °F 81.7 °F 64.0 °F 58% 29.98 in 10.0 mi East 4.6 mph - N/A   Mostly Cloudy
4:53 PM 79.0 °F - 64.0 °F 60% 29.98 in 10.0 mi NNW 3.5 mph - 0.00 in Rain Light Rain
5:53 PM 75.9 °F - 68.0 °F 76% 29.97 in 10.0 mi NNE 13.8 mph - 0.05 in Rain Light Rain
6:53 PM 75.0 °F - 68.0 °F 79% 29.96 in 10.0 mi Calm Calm - 0.01 in   Overcast
7:53 PM 75.0 °F - 69.1 °F 82% 29.92 in 10.0 mi NNW 12.7 mph - N/A   Overcast
8:53 PM 73.4 °F - 64.4 °F 73% 29.96 in 10.0 mi NW 4.6 mph - N/A   Clear
9:53 PM 73.0 °F - 66.9 °F 81% 29.95 in 10.0 mi NE 4.6 mph - N/A   Mostly Cloudy
10:53 PM 73.0 °F - 64.9 °F 76% 29.94 in 10.0 mi NNW 4.6 mph - N/A   Clear
11:53 PM 72.0 °F - 64.0 °F 76% 29.95 in 10.0 mi NNW 4.6 mph - N/A   Clear